User: anonymous   Login
Location: Unspecified
(0.0000°N, 0.0000°E)
Time: 05:14:03
(UTC+02:00)
Language:

GPS 2-05 Rocket1 - Orbit

View from above orbital plane
View from above orbital plane
View from above satellite
View from above satellite

Ground track
Ground track

The orbit data is extracted from the following two-line orbital elements,

1 20362U 89097B   16273.08469346  .00018572  00000-0  33177-3 0  9992
2 20362  35.6080 131.9455 0062818  68.4209  64.5097 15.46923664459284
Epoch (UTC): 29 September 2016 02:01:57
Eccentricity: 0.0062818
inclination: 35.6080°
perigee height: 383 km
apogee height: 468 km
right ascension of ascending node: 131.9455°
argument of perigee: 68.4209°
revolutions per day: 15.46923664
mean anomaly at epoch: 64.5097°
orbit number at epoch: 45928

The dashed part of the orbit path shows where the satellite is in the earth's shadow,  

DLR